Location: Baller�as
(41.9020°N, 0.1554°W)
Time: 11:25:28
(UTC+00:00)

Cosmos 2082 Rocket - Pass Details

Date: 10 August 2020
Orbit: 835 x 852 km, 71.0° (Epoch: 21 September)

Event Time Altitude Azimuth Distance (km) Brightness Sun altitude
Rises 21:14:27 0° 218° (SW) 3,401 5.3 -20.6°
Reaches altitude 10° 21:16:58 10° 224° (SW) 2,468 4.6 -20.9°
Maximum altitude 21:22:27 50° 299° (WNW) 1,076 3.1 -21.6°
Drops below altitude 10° 21:27:57 10° 14° (NNE) 2,472 5.0 -22.3°
Sets 21:30:30 0° 20° (NNE) 3,408 5.7 -22.6°
